User: anonymous   Login
Location: Unspecified
(0.0000°N, 0.0000°E)
Time: 09:51:42
(UTC+00:00)
Language:

NOSS 2-2 (C) - Orbit

View from above orbital plane
View from above orbital plane
View from above satellite
View from above satellite

Ground track
Ground track

The orbit data is extracted from the following two-line orbital elements,

1 21799U 91076C   18112.83054539 0.00000130  00000-0  36753-4 0    06
2 21799  63.3430  19.8919 0774500  28.6329 331.3671 13.41169247    01
Epoch (UTC): 22 April 2018 19:55:59
Eccentricity: 0.0774500
inclination: 63.3430°
perigee height: 525 km
apogee height: 1684 km
right ascension of ascending node: 19.8919°
argument of perigee: 28.6329°
revolutions per day: 13.41169247
mean anomaly at epoch: 331.3671°
orbit number at epoch: 0

The dashed part of the orbit path shows where the satellite is in the earth's shadow,  

DLR